Weather History for Plattsburgh, NY

Change the Weather History Date:

Sunday, January 6, 2013

  Actual Average Record
Temperature  
Mean Temperature 23 °F 18 °F  
Max Temperature 34 °F 28 °F 49 °F (2014)
Min Temperature 12 °F 8 °F -16 °F (1976)
Degree Days  
Heating Degree Days 42 47  
Month to date heating degree days 310 279  
Since 1 July heating degree days 2969 3165  
Moisture  
Dew Point 19 °F    
Average Humidity 83    
Maximum Humidity 92    
Minimum Humidity 74    
Precipitation  
Precipitation 0.04 in - 0.62 in (1954)
Month to date precipitation 0.06  
Year to date precipitation 0.06  
Sea Level Pressure  
Sea Level Pressure 29.96 in    
Wind  
Wind Speed 6 mph (North)    
Max Wind Speed 17 mph    
Max Gust Speed 21 mph    
Visibility 5 miles    
Events Snow    
T = Trace of Precipitation, MM = Missing Value Source: NWS Daily Summary

Daily Weather History Graph

Daily Weather History Graph

Search for Another Location

Airport:

Trip Planner

Search our weather history database for the weather conditions in past years. The results will help you decide how hot, cold, wet, or windy it might be!

Date:

Astronomy

Jan. 06, 2013 Rise Set
Actual Time 7:30 AM EST 4:29 PM EST
Civil Twilight 6:57 AM EST 5:02 PM EST
Nautical Twilight 6:20 AM EST 5:39 PM EST
Astronomical Twilight 5:45 AM EST 6:14 PM EST
Moon 1:36 AM EST (1/6) 11:59 AM EST (1/6)
Length of Visible Light 10h 05m
Length of Day
8h 58m
Waning Crescent, 33% of the Moon is Illuminated
Jan 6
Waning Crescent
Jan 11
New
Jan 18
First Quarter
Jan 26
Full
Feb 3
Last Quarter

Hourly Weather History & Observations

Time (EST) Temp. Windchill Dew Point Humidity Pressure Visibility Wind Dir Wind Speed Gust Speed Precip Events Conditions
12:53 AM 14.0 °F - 10.0 °F 84% 30.15 in 10.0 mi Calm Calm - N/A   Overcast
1:53 AM 17.1 °F - 10.9 °F 77% 30.13 in 10.0 mi Calm Calm - N/A   Overcast
2:53 AM 17.1 °F 11.7 °F 12.0 °F 81% 30.09 in 10.0 mi West 3.5 mph - N/A   Overcast
3:53 AM 17.1 °F 11.7 °F 12.0 °F 81% 30.04 in 10.0 mi WSW 3.5 mph - N/A   Overcast
5:14 AM 19.4 °F - 14.0 °F 80% 29.99 in 2.5 mi Calm Calm - 0.00 in Snow Light Snow
5:28 AM 19.4 °F - 15.8 °F 86% 29.99 in 3.0 mi Calm Calm - 0.00 in Snow Light Snow
5:41 AM 19.4 °F - 15.8 °F 86% 29.98 in 7.0 mi Calm Calm - 0.00 in Snow Light Snow
5:53 AM 19.9 °F - 16.0 °F 85% 29.99 in 6.0 mi Calm Calm - 0.00 in Snow Light Snow
6:17 AM 19.4 °F - 17.6 °F 93% 29.98 in 3.0 mi Calm Calm - 0.00 in Snow Light Snow
6:43 AM 19.4 °F - 17.6 °F 93% 29.98 in 2.5 mi Calm Calm - 0.00 in Snow Light Snow
6:53 AM 19.0 °F - 17.1 °F 92% 29.99 in 2.5 mi Calm Calm - 0.00 in Snow Light Snow
7:01 AM 19.4 °F - 17.6 °F 93% 29.97 in 3.0 mi Calm Calm - 0.00 in Snow Light Snow
7:11 AM 19.4 °F - 17.6 °F 93% 29.97 in 5.0 mi Calm Calm - 0.00 in Snow Light Snow
7:53 AM 19.0 °F 13.9 °F 16.0 °F 88% 29.97 in 6.0 mi SSW 3.5 mph - 0.00 in Snow Light Snow
8:53 AM 21.9 °F 15.7 °F 19.0 °F 89% 29.97 in 5.0 mi SSW 4.6 mph - 0.00 in Snow Light Snow
9:53 AM 25.0 °F 20.7 °F 21.0 °F 85% 29.96 in 10.0 mi South 3.5 mph - 0.00 in   Overcast
10:53 AM 28.9 °F 23.9 °F 21.9 °F 75% 29.92 in 10.0 mi South 4.6 mph - 0.02 in   Mostly Cloudy
11:49 AM 30.2 °F 23.4 °F 24.8 °F 80% 29.89 in 10.0 mi SSE 6.9 mph - 0.01 in   Overcast
11:53 AM 30.0 °F 21.7 °F 24.1 °F 79% 29.91 in 10.0 mi SE 9.2 mph - 0.01 in   Overcast
12:17 PM 30.2 °F 22.6 °F 24.8 °F 80% 29.88 in 9.0 mi SSE 8.1 mph - 0.00 in Snow Light Snow
12:53 PM 30.9 °F 22.2 °F 26.1 °F 82% 29.88 in 7.0 mi SE 10.4 mph - 0.00 in Snow Light Snow
1:53 PM 32.0 °F 25.6 °F 26.1 °F 79% 29.87 in 10.0 mi SSE 6.9 mph - 0.01 in   Overcast
2:53 PM 34.0 °F 29.8 °F 27.0 °F 75% 29.87 in 10.0 mi South 4.6 mph - N/A   Overcast
3:53 PM 33.1 °F 28.7 °F 28.0 °F 82% 29.87 in 3.0 mi South 4.6 mph - 0.00 in Snow Light Snow
4:53 PM 32.0 °F - 28.9 °F 88% 29.88 in 5.0 mi Calm Calm - 0.00 in Snow Light Snow
5:53 PM 30.9 °F 25.2 °F 28.9 °F 92% 29.89 in 5.0 mi North 5.8 mph - 0.00 in Snow Light Snow
6:17 PM 28.4 °F 17.5 °F 26.6 °F 93% 29.89 in 2.5 mi NE 13.8 mph - 0.00 in Snow Light Snow
6:49 PM 24.8 °F 13.4 °F 21.2 °F 86% 29.91 in 4.0 mi NNE 12.7 mph - 0.00 in Snow Light Snow
6:53 PM 24.1 °F 11.0 °F 21.0 °F 88% 29.92 in 4.0 mi NNE 16.1 mph - 0.00 in Snow Light Snow
7:53 PM 21.9 °F 9.2 °F 18.0 °F 85% 29.94 in 6.0 mi North 13.8 mph - 0.00 in Snow Light Snow
8:07 PM 21.2 °F 9.5 °F 17.6 °F 86% 29.93 in 3.0 mi North 11.5 mph - 0.00 in Snow Light Snow
8:24 PM 21.2 °F 9.5 °F 17.6 °F 86% 29.94 in 2.5 mi North 11.5 mph - 0.00 in Snow Light Snow
8:38 PM 21.2 °F 10.1 °F 17.6 °F 86% 29.94 in 1.5 mi NNW 10.4 mph - 0.00 in Snow Light Snow
8:53 PM 21.0 °F 9.9 °F 18.0 °F 88% 29.96 in 1.8 mi NNW 10.4 mph - 0.00 in Snow Light Snow
9:14 PM 21.2 °F 10.9 °F 17.6 °F 86% 29.95 in 2.5 mi North 9.2 mph - 0.00 in Snow Light Snow
9:37 PM 21.2 °F 10.1 °F 17.6 °F 86% 29.95 in 3.0 mi North 10.4 mph - 0.00 in Snow Light Snow
9:51 PM 21.2 °F 10.9 °F 17.6 °F 86% 29.96 in 2.5 mi North 9.2 mph - 0.00 in Snow Light Snow
9:53 PM 21.0 °F 9.9 °F 18.0 °F 88% 29.97 in 2.5 mi North 10.4 mph - 0.00 in Snow Light Snow
10:06 PM 21.2 °F 9.5 °F 17.6 °F 86% 29.97 in 3.0 mi North 11.5 mph - 0.00 in Snow Light Snow
10:53 PM 19.9 °F 6.7 °F 16.0 °F 85% 30.01 in 7.0 mi North 13.8 mph - 0.00 in Snow Light Snow
11:53 PM 19.0 °F 5.6 °F 15.1 °F 85% 30.04 in 3.0 mi North 13.8 mph - 0.00 in Snow Light Snow